When you browse on this site, cookies collect data to enhance your experience and personalize the content and advertising you see.
Visit our Privacy Policy to learn more. By continuing to use the site, you agree to this use of cookies and data.
  • In Slovakia
  • List of Countries
  • For 7 days
  • Water Temperature
  • Weather Map
  • Weather Widgets
  • user-avatar
    Login

    Hourly Weather Yurkovichi

    Today, 18 August, Sunday

    Time Temperature Precipitation Wind Pressure Humidity
    00:00 +13°C° 0 mm 2 mps 742 mmHg 84%
    01:00 +13°C° 0 mm 1 mps 742 mmHg 85%
    02:00 +12°C° 0 mm 1 mps 742 mmHg 86%
    03:00 +12°C° 0 mm 1 mps 742 mmHg 87%
    04:00 +12°C° 0 mm 2 mps 742 mmHg 88%
    05:00 +12°C° 0 mm 2 mps 742 mmHg 88%
    06:00 +13°C° 0 mm 2 mps 742 mmHg 83%
    07:00 +15°C° 0 mm 2 mps 742 mmHg 78%
    08:00 +17°C° 0 mm 2 mps 742 mmHg 72%
    09:00 +18°C° 0 mm 2 mps 742 mmHg 66%
    10:00 +20°C° 0 mm 2 mps 742 mmHg 59%
    11:00 +21°C° 0 mm 2 mps 742 mmHg 53%
    12:00 +23°C° 0 mm 2 mps 742 mmHg 51%
    13:00 +23°C° 0 mm 2 mps 742 mmHg 49%
    14:00 +24°C° 0 mm 2 mps 742 mmHg 48%
    15:00 +24°C° 0 mm 2 mps 742 mmHg 50%
    16:00 +24°C° 0 mm 2 mps 742 mmHg 53%
    17:00 +24°C° 0 mm 1 mps 742 mmHg 56%
    18:00 +22°C° 0 mm 1 mps 742 mmHg 62%
    19:00 +20°C° 0 mm 1 mps 742 mmHg 68%
    20:00 +18°C° 0 mm 1 mps 743 mmHg 74%
    21:00 +18°C° 0 mm 1 mps 743 mmHg 76%
    22:00 +16°C° 0 mm 2 mps 743 mmHg 79%
    23:00 +16°C° 0 mm 2 mps 743 mmHg 82%

    Tomorrow, 19 August, Monday

    Time Temperature Precipitation Wind Pressure Humidity
    00:00 +16°C° 0 mm 2 mps 743 mmHg 85%
    01:00 +15°C° 0 mm 2 mps 743 mmHg 88%
    02:00 +15°C° 0 mm 2 mps 743 mmHg 91%
    03:00 +14°C° 0 mm 3 mps 743 mmHg 92%
    04:00 +14°C° 0 mm 3 mps 742 mmHg 92%
    05:00 +14°C° 0 mm 3 mps 742 mmHg 92%
    06:00 +16°C° 0 mm 3 mps 742 mmHg 87%
    07:00 +18°C° 0 mm 4 mps 743 mmHg 82%
    08:00 +19°C° 0 mm 4 mps 743 mmHg 77%
    09:00 +20°C° 0 mm 4 mps 743 mmHg 75%
    10:00 +21°C° 0 mm 4 mps 743 mmHg 74%
    11:00 +22°C° 0 mm 4 mps 743 mmHg 73%
    12:00 +25°C° 0.1 mm 4 mps 743 mmHg 70%
    13:00 +26°C° 0.1 mm 5 mps 744 mmHg 67%
    14:00 +28°C° 0.1 mm 5 mps 744 mmHg 65%
    15:00 +28°C° 0.2 mm 4 mps 744 mmHg 67%
    16:00 +27°C° 0.2 mm 4 mps 744 mmHg 70%
    17:00 +27°C° 0.2 mm 3 mps 744 mmHg 72%
    18:00 +26°C° 0.6 mm 3 mps 744 mmHg 78%
    19:00 +24°C° 0.6 mm 2 mps 744 mmHg 83%
    20:00 +21°C° 0.6 mm 2 mps 744 mmHg 88%
    21:00 +21°C° 0.5 mm 2 mps 744 mmHg 90%
    22:00 +20°C° 0.5 mm 2 mps 745 mmHg 92%
    23:00 +20°C° 0.5 mm 2 mps 745 mmHg 93%

    Day after tomorrow, 20 August, Tuesday

    Time Temperature Precipitation Wind Pressure Humidity
    00:00 +19°C° 2.4 mm 2 mps 745 mmHg 95%
    01:00 +19°C° 2.4 mm 2 mps 745 mmHg 96%
    02:00 +20°C° 2.4 mm 1 mps 746 mmHg 98%
    03:00 +20°C° 0.4 mm 1 mps 746 mmHg 98%
    04:00 +19°C° 0.4 mm 1 mps 746 mmHg 98%
    05:00 +17°C° 0.4 mm 0 mps 746 mmHg 98%
    06:00 +20°C° 0.2 mm 1 mps 746 mmHg 96%
    07:00 +20°C° 0.2 mm 1 mps 747 mmHg 95%
    08:00 +20°C° 0.2 mm 2 mps 747 mmHg 93%
    09:00 +21°C° 0.1 mm 2 mps 747 mmHg 90%
    10:00 +23°C° 0.1 mm 2 mps 747 mmHg 86%
    11:00 +23°C° 0.1 mm 2 mps 748 mmHg 83%
    12:00 +24°C° 0.1 mm 1 mps 748 mmHg 79%
    13:00 +25°C° 0.1 mm 1 mps 748 mmHg 76%
    14:00 +25°C° 0.1 mm 1 mps 748 mmHg 72%
    15:00 +25°C° 0 mm 1 mps 748 mmHg 71%
    16:00 +25°C° 0 mm 1 mps 748 mmHg 71%
    17:00 +25°C° 0 mm 1 mps 748 mmHg 70%
    18:00 +24°C° 0 mm 1 mps 748 mmHg 76%
    19:00 +22°C° 0 mm 1 mps 748 mmHg 81%
    20:00 +20°C° 0 mm 2 mps 749 mmHg 87%
    21:00 +20°C° 0 mm 1 mps 749 mmHg 89%
    22:00 +19°C° 0 mm 1 mps 749 mmHg 90%
    23:00 +19°C° 0 mm 1 mps 749 mmHg 92%

    21 August, Wednesday

    Time Temperature Precipitation Wind Pressure Humidity
    00:00 +18°C° 0 mm 1 mps 749 mmHg 92%
    01:00 +18°C° 0 mm 1 mps 749 mmHg 93%
    02:00 +18°C° 0 mm 1 mps 749 mmHg 93%
    03:00 +18°C° 0 mm 1 mps 749 mmHg 94%
    04:00 +16°C° 0 mm 1 mps 749 mmHg 94%
    05:00 +16°C° 0 mm 1 mps 749 mmHg 95%
    06:00 +19°C° 0 mm 1 mps 749 mmHg 91%
    07:00 +19°C° 0 mm 2 mps 749 mmHg 87%
    08:00 +20°C° 0 mm 2 mps 749 mmHg 83%
    09:00 +23°C° 0 mm 2 mps 749 mmHg 78%
    10:00 +24°C° 0 mm 2 mps 749 mmHg 73%
    11:00 +25°C° 0 mm 2 mps 749 mmHg 68%
    12:00 +26°C° 0.1 mm 2 mps 748 mmHg 68%
    13:00 +26°C° 0.1 mm 2 mps 748 mmHg 69%
    14:00 +26°C° 0.1 mm 2 mps 748 mmHg 69%
    15:00 +25°C° 0.8 mm 2 mps 747 mmHg 75%
    16:00 +25°C° 0.8 mm 2 mps 746 mmHg 80%
    17:00 +24°C° 0.8 mm 2 mps 746 mmHg 85%
    18:00 +23°C° 0.9 mm 2 mps 746 mmHg 86%
    19:00 +22°C° 0.9 mm 3 mps 746 mmHg 86%
    20:00 +21°C° 0.9 mm 3 mps 746 mmHg 87%
    21:00 +20°C° 0.3 mm 4 mps 746 mmHg 90%
    22:00 +17°C° 0.3 mm 5 mps 746 mmHg 92%
    23:00 +16°C° 0.3 mm 6 mps 746 mmHg 95%

    22 August, Thursday

    Time Temperature Precipitation Wind Pressure Humidity
    00:00 +15°C° 0.1 mm 5 mps 747 mmHg 94%
    01:00 +14°C° 0.1 mm 5 mps 747 mmHg 93%
    02:00 +14°C° 0.1 mm 4 mps 747 mmHg 93%
    03:00 +14°C° 0 mm 5 mps 747 mmHg 93%
    04:00 +14°C° 0 mm 5 mps 748 mmHg 93%
    05:00 +13°C° 0 mm 5 mps 748 mmHg 93%
    06:00 +13°C° 0 mm 5 mps 748 mmHg 92%
    07:00 +13°C° 0 mm 5 mps 749 mmHg 91%
    08:00 +13°C° 0 mm 5 mps 749 mmHg 90%
    09:00 +15°C° 0 mm 5 mps 749 mmHg 83%
    10:00 +16°C° 0 mm 5 mps 750 mmHg 77%
    11:00 +19°C° 0 mm 4 mps 750 mmHg 70%
    12:00 +19°C° 0 mm 4 mps 750 mmHg 67%
    13:00 +20°C° 0 mm 4 mps 750 mmHg 64%
    14:00 +21°C° 0 mm 4 mps 750 mmHg 61%
    15:00 +21°C° 0 mm 4 mps 750 mmHg 63%
    16:00 +21°C° 0 mm 4 mps 750 mmHg 65%
    17:00 +20°C° 0 mm 3 mps 750 mmHg 67%
    18:00 +19°C° 0 mm 3 mps 750 mmHg 73%
    19:00 +17°C° 0 mm 3 mps 750 mmHg 79%
    20:00 +15°C° 0 mm 2 mps 750 mmHg 85%
    21:00 +15°C° 0 mm 2 mps 750 mmHg 87%
    22:00 +14°C° 0 mm 2 mps 751 mmHg 88%
    23:00 +13°C° 0 mm 2 mps 751 mmHg 89%

    23 August, Friday

    Time Temperature Precipitation Wind Pressure Humidity
    00:00 +13°C° 0 mm 2 mps 751 mmHg 89%
    01:00 +13°C° 0 mm 1 mps 751 mmHg 90%
    02:00 +12°C° 0 mm 1 mps 751 mmHg 90%
    03:00 +12°C° 0 mm 1 mps 751 mmHg 91%
    04:00 +12°C° 0 mm 1 mps 751 mmHg 92%
    05:00 +11°C° 0 mm 1 mps 751 mmHg 93%
    06:00 +13°C° 0 mm 1 mps 751 mmHg 87%
    07:00 +15°C° 0 mm 1 mps 751 mmHg 81%
    08:00 +16°C° 0 mm 1 mps 751 mmHg 75%
    09:00 +19°C° 0 mm 1 mps 751 mmHg 70%
    10:00 +21°C° 0 mm 1 mps 751 mmHg 65%
    11:00 +22°C° 0 mm 1 mps 751 mmHg 59%
    12:00 +22°C° 0 mm 1 mps 751 mmHg 58%
    13:00 +22°C° 0 mm 1 mps 751 mmHg 56%
    14:00 +22°C° 0 mm 1 mps 751 mmHg 55%
    15:00 +21°C° 0 mm 2 mps 751 mmHg 57%
    16:00 +21°C° 0 mm 2 mps 751 mmHg 59%
    17:00 +21°C° 0 mm 2 mps 750 mmHg 61%
    18:00 +19°C° 0 mm 2 mps 750 mmHg 67%
    19:00 +17°C° 0 mm 2 mps 750 mmHg 73%
    20:00 +15°C° 0 mm 2 mps 750 mmHg 79%
    21:00 +15°C° 0 mm 2 mps 751 mmHg 83%
    22:00 +14°C° 0 mm 2 mps 751 mmHg 86%
    23:00 +13°C° 0 mm 2 mps 751 mmHg 90%
    Show more